Погода в Санта-Крусе

Филиппины     14°16′44″N   121°24′57″E
темп.,
°C
ветер,
м/с
пор.,
м/с
влажн.,
%
обл.,
%
осадки,
мм/ч
давл.,
гПа
погр.,
м
22 октября, пт
пт2223:00+23всв279195 0.0 1013239
02:00+22в129594 0.0 101159
05:00+22в119597 0.0 101231
08:00+26св3776100 0.1 1013970
11:00+28всв4767100 0.1 10131318
14:00+29всв4760100 0.2 10111509
17:00+25в388485 0.1 1011727
20:00+24в3109098 0.2 1014502
23 октября, сб
сб2323:00+23в289298 0.1 1014393
02:00+23всв299263 0.5 1012543
05:00+24всв3109199 0.1 1012688
08:00+26всв498126 0.4 1014925
11:00+28всв587259 0.8 10131226
14:00+26всв4882100 1.8 1011956
17:00+24в399399 1.1 1012788
20:00+23в289598 2.3 1013509
24 октября, вс
вс2423:00+23всв2896100 1.8 1013441
02:00+23всв289679 2.7 1011451
05:00+23всв3109456 1.6 1011553
08:00+24в389599 3.6 1013615
11:00+24всв289598 1.8 1012508
14:00+24всв389359 3.3 1010664
17:00+23всв3994100 0.8 1011591
20:00+23всв3995100 1.6 1012683
25 октября, пн
пн2523:00+23в3895100 1.8 1012572
02:00+22в2798100 3.4 1011377
05:00+22в2797100 1.4 1010333
08:00+22в2798100 3.4 1012387
11:00+23всв2897100 1.3 1012486
14:00+24всв289399 2.3 1010676
17:00+23всв2995100 1.1 1010639
20:00+23всв299691 1.8 1012571
26 октября, вт
вт2623:00+23всв2995100 0.4 1011584
02:00+23в149798 2.1 1010220
05:00+23всв289791 2.9 1010546
08:00+23всв2897100 6.9 1012537
11:00+23всв269799 3.8 1012440
14:00+23всв2697100 6.1 1010472
17:00+23всв2795100 0.4 1010432
20:00+22в269795 1.3 1012241